| time (UTC) | temp F | wind direction | speed knots | gust knots | rain 1hr in | rain 24hr in | rain mn in | humidity % | barometer mb |
| 20260506232509 | 67 | 18 | 1.7 | 3.5 | 0.00 | 0.00 | 0.00 | 66 | 1019.0 |
| 20260506232013 | 68 | 348 | 1.7 | 4.3 | 0.00 | 0.00 | 0.00 | 65 | 1018.9 |
| 20260506231535 | 68 | 20 | 0.9 | 4.3 | 0.00 | 0.00 | 0.00 | 66 | 1018.9 |
| 20260506231014 | 67 | 143 | 0.9 | 6.1 | 0.00 | 0.00 | 0.00 | 66 | 1018.9 |
| 20260506230510 | 67 | 57 | 0.9 | 6.1 | 0.00 | 0.00 | 0.00 | 65 | 1018.9 |
| 20260506230026 | 67 | 15 | 0.9 | 4.3 | 0.00 | 0.00 | 0.00 | 66 | 1019.0 |
| 20260506225508 | 68 | 338 | 0.9 | 4.3 | 0.00 | 0.00 | 0.00 | 64 | 1019.0 |
| 20260506225011 | 68 | 150 | 0.9 | 3.5 | 0.00 | 0.00 | 0.00 | 63 | 1019.1 |
| 20260506224529 | 69 | 31 | 0.9 | 2.6 | 0.00 | 0.00 | 0.00 | 64 | 1019.1 |
| 20260506224013 | 68 | 69 | 0.9 | 3.5 | 0.00 | 0.00 | 0.00 | 64 | 1019.1 |
| 20260506223509 | 68 | 43 | 0.9 | 3.5 | 0.00 | 0.00 | 0.00 | 65 | 1019.2 |
| 20260506223027 | 68 | 142 | 0.9 | 3.5 | 0.00 | 0.00 | 0.00 | 65 | 1019.2 |
| 20260506222509 | 68 | 27 | 0.9 | 4.3 | 0.00 | 0.00 | 0.00 | 64 | 1019.3 |
| 20260506222015 | 68 | 146 | 0.9 | 4.3 | 0.00 | 0.00 | 0.00 | 64 | 1019.4 |
| 20260506221517 | 68 | 351 | 1.7 | 2.6 | 0.00 | 0.00 | 0.00 | 65 | 1019.5 |
| 20260506221011 | 68 | 42 | 1.7 | 2.6 | 0.00 | 0.00 | 0.00 | 65 | 1019.5 |
| 20260506220509 | 68 | 30 | 0.9 | 2.6 | 0.00 | 0.00 | 0.00 | 64 | 1019.5 |
| 20260506220024 | 68 | 19 | 1.7 | 3.5 | 0.00 | 0.00 | 0.00 | 64 | 1019.6 |
| 20260506215509 | 69 | 85 | 0.9 | 3.5 | 0.00 | 0.00 | 0.00 | 64 | 1019.6 |
| 20260506215009 | 69 | 352 | 0.9 | 3.5 | 0.00 | 0.00 | 0.00 | 65 | 1019.6 |
| 20260506214525 | 68 | 32 | 1.7 | 3.5 | 0.00 | 0.00 | 0.00 | 64 | 1019.7 |
| 20260506214010 | 68 | 32 | 0.9 | 3.5 | 0.00 | 0.00 | 0.00 | 64 | 1019.7 |
| 20260506213502 | 69 | 46 | 0.9 | 3.5 | 0.00 | 0.00 | 0.00 | 63 | 1019.8 |
| 20260506213018 | 69 | 55 | 0.9 | 3.5 | 0.00 | 0.00 | 0.00 | 63 | 1019.7 |
| 20260506212510 | 69 | 9 | 1.7 | 3.5 | 0.00 | 0.00 | 0.00 | 63 | 1019.7 |
| 20260506212006 | 69 | 25 | 0.9 | 3.5 | 0.00 | 0.00 | 0.00 | 63 | 1019.8 |
| 20260506211517 | 69 | 28 | 0.9 | 3.5 | 0.00 | 0.00 | 0.00 | 63 | 1019.7 |
| 20260506211009 | 69 | 19 | 0.9 | 2.6 | 0.00 | 0.00 | 0.00 | 62 | 1019.7 |
| 20260506210512 | 69 | 82 | 0.0 | 4.3 | 0.00 | 0.00 | 0.00 | 62 | 1019.6 |
| 20260506210023 | 69 | 344 | 0.9 | 4.3 | 0.00 | 0.00 | 0.00 | 62 | 1019.7 |
| 20260506205511 | 69 | 360 | 1.7 | 3.5 | 0.00 | 0.00 | 0.00 | 61 | 1019.7 |
| 20260506205010 | 69 | 73 | 0.9 | 2.6 | 0.00 | 0.00 | 0.00 | 62 | 1019.7 |
| 20260506204523 | 69 | 346 | 0.9 | 2.6 | 0.00 | 0.00 | 0.00 | 61 | 1019.8 |
| 20260506204014 | 70 | 252 | 0.0 | 2.6 | 0.00 | 0.00 | 0.00 | 61 | 1019.8 |
| 20260506203516 | 69 | 9 | 0.9 | 2.6 | 0.00 | 0.00 | 0.00 | 60 | 1019.9 |
| 20260506203033 | 69 | 311 | 0.9 | 2.6 | 0.00 | 0.00 | 0.00 | 61 | 1019.9 |
| 20260506202506 | 69 | 146 | 0.9 | 2.6 | 0.00 | 0.00 | 0.00 | 62 | 1020.0 |
| 20260506202007 | 69 | 344 | 0.0 | 2.6 | 0.00 | 0.00 | 0.00 | 62 | 1020.1 |
| 20260506201516 | 68 | 334 | 0.9 | 2.6 | 0.00 | 0.00 | 0.00 | 63 | 1020.1 |
| 20260506201007 | 68 | 32 | 0.9 | 2.6 | 0.00 | 0.00 | 0.00 | 62 | 1020.3 |
| 20260506200507 | 68 | 360 | 0.9 | 1.7 | 0.00 | 0.00 | 0.00 | 62 | 1020.3 |
| 20260506200025 | 68 | 23 | 0.0 | 1.7 | 0.00 | 0.00 | 0.00 | 63 | 1020.3 |
| 20260506195509 | 67 | 310 | 0.0 | 2.6 | 0.00 | 0.00 | 0.00 | 64 | 1020.4 |
| 20260506195010 | 67 | 343 | 0.9 | 2.6 | 0.00 | 0.00 | 0.00 | 63 | 1020.4 |
| 20260506194522 | 67 | 34 | 0.9 | 2.6 | 0.00 | 0.00 | 0.00 | 63 | 1020.4 |
| 20260506194009 | 67 | 290 | 0.9 | 2.6 | 0.00 | 0.00 | 0.00 | 63 | 1020.5 |
| 20260506193512 | 66 | 13 | 0.9 | 1.7 | 0.00 | 0.00 | 0.00 | 64 | 1020.5 |
| 20260506193024 | 66 | 181 | 0.0 | 2.6 | 0.00 | 0.00 | 0.00 | 66 | 1020.6 |
| 20260506192509 | 66 | 334 | 0.9 | 2.6 | 0.00 | 0.00 | 0.00 | 65 | 1020.7 |
| 20260506192014 | 66 | 18 | 0.9 | 2.6 | 0.00 | 0.00 | 0.00 | 65 | 1020.7 |
| 20260506191529 | 65 | 39 | 0.9 | 2.6 | 0.00 | 0.00 | 0.00 | 68 | 1020.9 |
| 20260506191007 | 65 | 182 | 0.9 | 2.6 | 0.00 | 0.00 | 0.00 | 67 | 1020.9 |
| 20260506190507 | 65 | 360 | 0.9 | 1.7 | 0.00 | 0.00 | 0.00 | 67 | 1021.0 |
| 20260506190017 | 65 | 10 | 0.0 | 1.7 | 0.00 | 0.00 | 0.00 | 66 | 1021.0 |
| 20260506185508 | 65 | 148 | 0.9 | 3.5 | 0.00 | 0.00 | 0.00 | 66 | 1020.9 |
| 20260506185009 | 65 | 42 | 0.9 | 3.5 | 0.00 | 0.00 | 0.00 | 66 | 1020.9 |
| 20260506184522 | 65 | 161 | 0.9 | 2.6 | 0.00 | 0.00 | 0.00 | 64 | 1020.9 |
| 20260506184006 | 66 | 9 | 0.9 | 3.5 | 0.00 | 0.00 | 0.00 | 63 | 1020.9 |
| 20260506183510 | 67 | 318 | 0.9 | 3.5 | 0.00 | 0.00 | 0.00 | 64 | 1020.9 |
| 20260506183025 | 67 | 11 | 0.0 | 2.6 | 0.00 | 0.00 | 0.00 | 64 | 1020.9 |
| 20260506182508 | 66 | 170 | 0.9 | 2.6 | 0.00 | 0.00 | 0.00 | 64 | 1020.9 |
| 20260506182015 | 66 | 166 | 0.9 | 2.6 | 0.00 | 0.00 | 0.00 | 65 | 1020.9 |
| 20260506181526 | 66 | 333 | 0.9 | 2.6 | 0.00 | 0.00 | 0.00 | 64 | 1020.9 |
| 20260506181007 | 66 | 163 | 0.9 | 3.5 | 0.00 | 0.00 | 0.00 | 65 | 1020.8 |
| 20260506180510 | 65 | 148 | 0.0 | 3.5 | 0.00 | 0.00 | 0.00 | 66 | 1020.8 |
| 20260506180014 | 65 | 30 | 0.9 | 3.5 | 0.00 | 0.00 | 0.00 | 66 | 1020.8 |
| 20260506175511 | 65 | 15 | 0.0 | 2.6 | 0.00 | 0.00 | 0.00 | 67 | 1020.7 |
| 20260506175008 | 65 | 9 | 0.9 | 2.6 | 0.00 | 0.00 | 0.00 | 66 | 1020.8 |
| 20260506174519 | 65 | 333 | 0.0 | 1.7 | 0.00 | 0.00 | 0.00 | 66 | 1020.7 |
| 20260506174010 | 64 | 323 | 0.0 | 2.6 | 0.00 | 0.00 | 0.00 | 67 | 1020.7 |
| 20260506173510 | 64 | 351 | 0.9 | 2.6 | 0.00 | 0.00 | 0.00 | 68 | 1020.7 |
| 20260506173032 | 64 | 156 | 0.9 | 2.6 | 0.00 | 0.00 | 0.00 | 68 | 1020.8 |
| 20260506172510 | 64 | 309 | 0.9 | 2.6 | 0.00 | 0.00 | 0.00 | 68 | 1020.8 |
| 20260506172010 | 63 | 22 | 0.0 | 2.6 | 0.00 | 0.00 | 0.00 | 69 | 1020.9 |
| 20260506171525 | 63 | 5 | 0.9 | 2.6 | 0.00 | 0.00 | 0.00 | 69 | 1020.9 |
| 20260506171010 | 64 | 27 | 0.0 | 1.7 | 0.00 | 0.00 | 0.00 | 69 | 1020.9 |
| 20260506170513 | 63 | 342 | 0.0 | 2.6 | 0.00 | 0.00 | 0.00 | 69 | 1020.9 |
| 20260506170027 | 63 | 84 | 0.0 | 3.5 | 0.00 | 0.00 | 0.00 | 69 | 1020.9 |
| 20260506165510 | 63 | 160 | 0.9 | 3.5 | 0.00 | 0.00 | 0.00 | 69 | 1020.9 |
| 20260506165006 | 62 | 185 | 0.0 | 1.7 | 0.00 | 0.00 | 0.00 | 72 | 1020.8 |
| 20260506164516 | 61 | 175 | 0.0 | 1.7 | 0.00 | 0.00 | 0.00 | 73 | 1020.8 |
| 20260506164009 | 60 | 22 | 0.0 | 1.7 | 0.00 | 0.00 | 0.00 | 74 | 1020.9 |
| 20260506163507 | 60 | 157 | 0.0 | 1.7 | 0.00 | 0.00 | 0.00 | 74 | 1020.9 |
| 20260506163038 | 60 | 155 | 0.0 | 1.7 | 0.00 | 0.00 | 0.00 | 74 | 1020.8 |
| 20260506162506 | 60 | 169 | 0.0 | 1.7 | 0.00 | 0.00 | 0.00 | 75 | 1020.8 |
| 20260506162014 | 60 | 348 | 0.0 | 1.7 | 0.00 | 0.00 | 0.00 | 75 | 1020.8 |
| 20260506161528 | 59 | 323 | 0.0 | 1.7 | 0.00 | 0.00 | 0.00 | 74 | 1020.9 |
| 20260506161007 | 60 | 279 | 0.0 | 1.7 | 0.00 | 0.00 | 0.00 | 74 | 1020.8 |
| 20260506160509 | 60 | 163 | 0.0 | 1.7 | 0.00 | 0.00 | 0.00 | 75 | 1020.8 |
| 20260506160028 | 59 | 164 | 0.0 | 1.7 | 0.00 | 0.00 | 0.00 | 75 | 1020.8 |
| 20260506155511 | 59 | 109 | 0.0 | 1.7 | 0.00 | 0.00 | 0.00 | 75 | 1020.8 |
| 20260506155011 | 59 | 65 | 0.0 | 1.7 | 0.00 | 0.00 | 0.00 | 76 | 1020.9 |
| 20260506154537 | 59 | 47 | 0.0 | 1.7 | 0.00 | 0.00 | 0.00 | 76 | 1020.9 |
| 20260506154010 | 58 | 59 | 0.0 | 1.7 | 0.00 | 0.00 | 0.00 | 76 | 1020.9 |
| 20260506153512 | 58 | 49 | 0.0 | 1.7 | 0.00 | 0.00 | 0.00 | 76 | 1020.9 |
| 20260506153018 | 59 | 63 | 0.0 | 1.7 | 0.00 | 0.00 | 0.00 | 75 | 1020.8 |
| 20260506152510 | 59 | 61 | 0.0 | 1.7 | 0.00 | 0.00 | 0.00 | 75 | 1020.8 |
| 20260506152014 | 59 | 49 | 0.0 | 1.7 | 0.00 | 0.00 | 0.00 | 75 | 1020.8 |
| 20260506151524 | 59 | 62 | 0.0 | 1.7 | 0.00 | 0.00 | 0.00 | 76 | 1020.8 |
| 20260506151008 | 59 | 62 | 0.0 | 1.7 | 0.00 | 0.00 | 0.00 | 75 | 1020.8 |
| 20260506150513 | 59 | 64 | 0.0 | 1.7 | 0.00 | 0.00 | 0.00 | 75 | 1020.8 |
| 20260506150024 | 60 | 59 | 0.0 | 1.7 | 0.00 | 0.00 | 0.00 | 75 | 1020.8 |
| 20260506145512 | 60 | 64 | 0.0 | 0.9 | 0.00 | 0.00 | 0.00 | 75 | 1020.7 |
| 20260506145011 | 59 | 26 | 0.0 | 0.0 | 0.00 | 0.00 | 0.00 | 76 | 1020.7 |
| 20260506144526 | 58 | 9 | 0.0 | 0.0 | 0.00 | 0.00 | 0.00 | 78 | 1020.7 |
| 20260506144009 | 58 | 17 | 0.0 | 0.0 | 0.00 | 0.00 | 0.00 | 79 | 1020.6 |
| 20260506143510 | 57 | 11 | 0.0 | 0.0 | 0.00 | 0.00 | 0.00 | 80 | 1020.6 |
| 20260506143028 | 56 | 9 | 0.0 | 1.7 | 0.00 | 0.00 | 0.00 | 81 | 1020.6 |
| 20260506142508 | 56 | 9 | 0.0 | 1.7 | 0.00 | 0.00 | 0.00 | 82 | 1020.6 |
| 20260506142010 | 55 | 10 | 0.0 | 0.0 | 0.00 | 0.00 | 0.00 | 83 | 1020.6 |
| 20260506141522 | 55 | 17 | 0.0 | 0.0 | 0.00 | 0.00 | 0.00 | 84 | 1020.5 |
| 20260506141016 | 55 | 17 | 0.0 | 0.0 | 0.00 | 0.00 | 0.00 | 84 | 1020.4 |
| 20260506140511 | 54 | 17 | 0.0 | 0.0 | 0.00 | 0.00 | 0.00 | 84 | 1020.4 |
| 20260506140029 | 54 | 17 | 0.0 | 0.0 | 0.00 | 0.00 | 0.00 | 84 | 1020.3 |
| 20260506135513 | 54 | 17 | 0.0 | 0.0 | 0.00 | 0.00 | 0.00 | 85 | 1020.3 |
| 20260506135014 | 54 | 17 | 0.0 | 0.0 | 0.00 | 0.00 | 0.00 | 85 | 1020.2 |
| 20260506134528 | 54 | 17 | 0.0 | 0.0 | 0.00 | 0.00 | 0.00 | 84 | 1020.2 |
| 20260506134011 | 55 | 17 | 0.0 | 0.0 | 0.00 | 0.00 | 0.00 | 84 | 1020.1 |
| 20260506133508 | 55 | 17 | 0.0 | 0.0 | 0.00 | 0.00 | 0.00 | 83 | 1020.1 |
| 20260506133029 | 55 | 17 | 0.0 | 0.0 | 0.00 | 0.00 | 0.00 | 83 | 1020.1 |
| 20260506132513 | 55 | 17 | 0.0 | 0.0 | 0.00 | 0.00 | 0.00 | 83 | 1020.2 |
| 20260506132011 | 55 | 17 | 0.0 | 0.0 | 0.00 | 0.00 | 0.00 | 83 | 1020.2 |
| 20260506131520 | 55 | 17 | 0.0 | 0.0 | 0.00 | 0.00 | 0.00 | 82 | 1020.1 |
| 20260506131013 | 55 | 17 | 0.0 | 0.0 | 0.00 | 0.00 | 0.00 | 82 | 1020.1 |
| 20260506130510 | 55 | 17 | 0.0 | 0.0 | 0.00 | 0.00 | 0.00 | 82 | 1020.0 |
| 20260506130007 | 55 | 17 | 0.0 | 0.0 | 0.00 | 0.00 | 0.00 | 82 | 1020.0 |
| 20260506125503 | 55 | 17 | 0.0 | 0.0 | 0.00 | 0.00 | 0.00 | 81 | 1020.0 |
| 20260506125004 | 55 | 17 | 0.0 | 0.0 | 0.00 | 0.00 | 0.00 | 82 | 1020.0 |
| 20260506124508 | 55 | 17 | 0.0 | 0.0 | 0.00 | 0.00 | 0.00 | 82 | 1020.0 |
| 20260506124009 | 55 | 17 | 0.0 | 0.0 | 0.00 | 0.00 | 0.00 | 82 | 1019.9 |
| 20260506123505 | 55 | 17 | 0.0 | 0.0 | 0.00 | 0.00 | 0.00 | 81 | 1019.9 |
| 20260506123012 | 55 | 17 | 0.0 | 0.0 | 0.00 | 0.00 | 0.00 | 81 | 1019.9 |
| 20260506122506 | 55 | 17 | 0.0 | 0.0 | 0.00 | 0.00 | 0.00 | 82 | 1019.9 |
| 20260506122008 | 55 | 17 | 0.0 | 0.0 | 0.00 | 0.00 | 0.00 | 81 | 1019.9 |
| 20260506121516 | 55 | 17 | 0.0 | 0.0 | 0.00 | 0.00 | 0.00 | 82 | 1019.9 |
| 20260506121006 | 55 | 17 | 0.0 | 0.0 | 0.00 | 0.00 | 0.00 | 81 | 1019.8 |
| 20260506120508 | 55 | 17 | 0.0 | 0.0 | 0.00 | 0.00 | 0.00 | 81 | 1019.8 |
| 20260506120021 | 56 | 17 | 0.0 | 0.0 | 0.00 | 0.00 | 0.00 | 80 | 1019.8 |
| 20260506115513 | 55 | 17 | 0.0 | 0.0 | 0.00 | 0.00 | 0.00 | 80 | 1019.8 |
| 20260506115008 | 55 | 17 | 0.0 | 0.0 | 0.00 | 0.00 | 0.00 | 81 | 1019.8 |
| 20260506114505 | 56 | 17 | 0.0 | 0.0 | 0.00 | 0.00 | 0.00 | 80 | 1019.7 |
| 20260506114005 | 56 | 17 | 0.0 | 0.0 | 0.00 | 0.00 | 0.00 | 81 | 1019.8 |
| 20260506113504 | 56 | 17 | 0.0 | 0.0 | 0.00 | 0.00 | 0.00 | 80 | 1019.7 |
| 20260506113012 | 56 | 17 | 0.0 | 0.0 | 0.00 | 0.00 | 0.00 | 80 | 1019.7 |
| 20260506112504 | 56 | 17 | 0.0 | 0.0 | 0.00 | 0.00 | 0.00 | 80 | 1019.6 |
| 20260506112006 | 56 | 17 | 0.0 | 0.0 | 0.00 | 0.00 | 0.00 | 80 | 1019.6 |
| 20260506111525 | 56 | 18 | 0.0 | 0.0 | 0.00 | 0.00 | 0.00 | 80 | 1019.5 |
| 20260506111007 | 55 | 13 | 0.0 | 0.0 | 0.00 | 0.00 | 0.00 | 80 | 1019.5 |
| 20260506110507 | 55 | 13 | 0.0 | 0.0 | 0.00 | 0.00 | 0.00 | 80 | 1019.4 |
| 20260506110021 | 55 | 16 | 0.0 | 0.0 | 0.00 | 0.00 | 0.00 | 80 | 1019.4 |
| 20260506105508 | 55 | 14 | 0.0 | 0.0 | 0.00 | 0.00 | 0.00 | 80 | 1019.4 |
| 20260506105013 | 55 | 14 | 0.0 | 0.0 | 0.00 | 0.00 | 0.00 | 80 | 1019.3 |
| 20260506104523 | 55 | 14 | 0.0 | 0.0 | 0.00 | 0.00 | 0.00 | 80 | 1019.4 |
| 20260506104012 | 55 | 360 | 0.0 | 0.0 | 0.00 | 0.00 | 0.00 | 80 | 1019.3 |
| 20260506103504 | 55 | 360 | 0.0 | 0.0 | 0.00 | 0.00 | 0.00 | 80 | 1019.3 |
| 20260506103008 | 55 | 360 | 0.0 | 0.0 | 0.00 | 0.00 | 0.00 | 80 | 1019.3 |
| 20260506102507 | 55 | 360 | 0.0 | 0.0 | 0.00 | 0.00 | 0.00 | 80 | 1019.2 |
| 20260506102005 | 55 | 360 | 0.0 | 0.0 | 0.00 | 0.00 | 0.00 | 79 | 1019.2 |
| 20260506101512 | 55 | 352 | 0.0 | 0.0 | 0.00 | 0.00 | 0.00 | 81 | 1019.0 |
| 20260506101008 | 55 | 351 | 0.0 | 0.0 | 0.00 | 0.00 | 0.00 | 80 | 1019.1 |
| 20260506100507 | 55 | 350 | 0.0 | 0.0 | 0.00 | 0.00 | 0.00 | 80 | 1019.1 |
| 20260506100017 | 55 | 9 | 0.0 | 0.0 | 0.00 | 0.00 | 0.00 | 81 | 1019.1 |
| 20260506095507 | 55 | 9 | 0.0 | 0.0 | 0.00 | 0.00 | 0.00 | 81 | 1019.2 |
| 20260506095015 | 55 | 352 | 0.0 | 0.0 | 0.00 | 0.01 | 0.00 | 81 | 1019.2 |
| 20260506094522 | 55 | 352 | 0.0 | 0.0 | 0.00 | 0.01 | 0.00 | 82 | 1019.2 |
| 20260506094011 | 54 | 352 | 0.0 | 0.0 | 0.00 | 0.01 | 0.00 | 83 | 1019.2 |
| 20260506093516 | 54 | 352 | 0.0 | 0.0 | 0.00 | 0.01 | 0.00 | 83 | 1019.2 |
| 20260506093026 | 54 | 352 | 0.0 | 0.0 | 0.00 | 0.01 | 0.00 | 83 | 1019.2 |
| 20260506092509 | 54 | 352 | 0.0 | 0.0 | 0.00 | 0.01 | 0.00 | 84 | 1019.2 |
| 20260506092006 | 54 | 352 | 0.0 | 0.0 | 0.00 | 0.01 | 0.00 | 83 | 1019.1 |
| 20260506091509 | 54 | 352 | 0.0 | 0.0 | 0.00 | 0.01 | 0.00 | 83 | 1019.2 |
| 20260506091010 | 55 | 352 | 0.0 | 0.0 | 0.00 | 0.01 | 0.00 | 82 | 1019.2 |
| 20260506090504 | 55 | 352 | 0.0 | 0.0 | 0.00 | 0.01 | 0.00 | 82 | 1019.1 |
| 20260506090027 | 55 | 352 | 0.0 | 0.0 | 0.00 | 0.01 | 0.00 | 82 | 1019.1 |
| 20260506085507 | 55 | 352 | 0.0 | 0.0 | 0.00 | 0.02 | 0.00 | 81 | 1019.1 |
| 20260506085008 | 55 | 352 | 0.0 | 0.9 | 0.00 | 0.02 | 0.00 | 81 | 1019.2 |
| 20260506084533 | 55 | 352 | 0.0 | 0.9 | 0.00 | 0.02 | 0.00 | 81 | 1019.2 |
| 20260506084007 | 55 | 352 | 0.0 | 1.7 | 0.00 | 0.02 | 0.00 | 80 | 1019.2 |
| 20260506083509 | 55 | 18 | 0.0 | 1.7 | 0.00 | 0.02 | 0.00 | 80 | 1019.2 |
| 20260506083030 | 56 | 18 | 0.0 | 0.0 | 0.00 | 0.02 | 0.00 | 81 | 1019.2 |
| 20260506082507 | 56 | 18 | 0.0 | 0.0 | 0.00 | 0.02 | 0.00 | 81 | 1019.3 |
| 20260506082009 | 56 | 18 | 0.0 | 0.0 | 0.00 | 0.02 | 0.00 | 81 | 1019.3 |
| 20260506081528 | 56 | 18 | 0.0 | 0.0 | 0.00 | 0.02 | 0.00 | 81 | 1019.3 |
| 20260506081009 | 56 | 18 | 0.0 | 0.9 | 0.00 | 0.03 | 0.00 | 81 | 1019.3 |
| 20260506080507 | 56 | 18 | 0.0 | 0.9 | 0.00 | 0.04 | 0.00 | 80 | 1019.3 |
| 20260506073511 | 56 | 341 | 0.0 | 1.7 | 0.00 | 0.07 | 0.00 | 79 | 1019.1 |
| 20260506073022 | 56 | 341 | 0.0 | 1.7 | 0.00 | 0.08 | 0.00 | 78 | 1019.1 |
| 20260506072509 | 56 | 341 | 0.0 | 1.7 | 0.00 | 0.09 | 0.00 | 78 | 1019.1 |
| 20260506072016 | 56 | 51 | 0.0 | 1.7 | 0.00 | 0.09 | 0.00 | 78 | 1019.1 |
| 20260506071526 | 56 | 74 | 0.0 | 1.7 | 0.00 | 0.09 | 0.00 | 79 | 1019.0 |
| 20260506071009 | 56 | 76 | 0.0 | 1.7 | 0.00 | 0.10 | 0.00 | 79 | 1019.0 |
| 20260506070504 | 56 | 63 | 0.0 | 0.9 | 0.00 | 0.10 | 0.00 | 79 | 1019.0 |
| 20260506062511 | 55 | 58 | 0.0 | 1.7 | 0.00 | 0.11 | 0.10 | 82 | 1018.7 |
| 20260506062012 | 55 | 343 | 0.0 | 1.7 | 0.00 | 0.12 | 0.10 | 82 | 1018.8 |
| 20260506061524 | 56 | 343 | 0.0 | 1.7 | 0.00 | 0.12 | 0.10 | 82 | 1018.7 |
| 20260506061004 | 56 | 341 | 0.0 | 0.0 | 0.00 | 0.12 | 0.10 | 83 | 1018.6 |
| 20260506060503 | 56 | 341 | 0.0 | 0.0 | 0.00 | 0.12 | 0.10 | 83 | 1018.7 |
| 20260506051010 | 56 | 129 | 0.0 | 1.7 | 0.00 | 0.15 | 0.10 | 84 | 1018.4 |
| 20260506050510 | 56 | 31 | 0.0 | 1.7 | 0.00 | 0.16 | 0.10 | 84 | 1018.4 |
| 20260506045004 | 56 | 116 | 0.0 | 1.7 | 0.00 | 0.17 | 0.10 | 84 | 1018.2 |
| 20260506044515 | 56 | 32 | 0.0 | 2.6 | 0.00 | 0.17 | 0.10 | 84 | 1018.2 |
| 20260506044005 | 56 | 72 | 0.0 | 2.6 | 0.00 | 0.18 | 0.10 | 84 | 1018.1 |
| 20260506043506 | 56 | 116 | 0.0 | 1.7 | 0.00 | 0.19 | 0.10 | 84 | 1018.1 |
| 20260506043017 | 56 | 116 | 0.0 | 1.7 | 0.00 | 0.19 | 0.10 | 84 | 1018.0 |
| 20260506042508 | 56 | 115 | 0.0 | 1.7 | 0.00 | 0.19 | 0.10 | 83 | 1018.0 |
| 20260506042008 | 56 | 136 | 0.0 | 1.7 | 0.00 | 0.19 | 0.10 | 83 | 1017.9 |
| 20260506041531 | 56 | 31 | 0.0 | 1.7 | 0.00 | 0.19 | 0.10 | 83 | 1017.9 |
| 20260506041008 | 56 | 41 | 0.0 | 1.7 | 0.00 | 0.19 | 0.10 | 82 | 1017.8 |
| 20260506040512 | 56 | 352 | 0.0 | 1.7 | 0.00 | 0.19 | 0.10 | 82 | 1017.7 |
| 20260506040022 | 56 | 9 | 0.0 | 1.7 | 0.00 | 0.19 | 0.10 | 82 | 1017.7 |
| 20260506035511 | 56 | 66 | 0.0 | 1.7 | 0.00 | 0.19 | 0.10 | 81 | 1017.6 |
| 20260506035009 | 56 | 40 | 0.0 | 1.7 | 0.00 | 0.19 | 0.10 | 81 | 1017.5 |
| 20260506034510 | 56 | 56 | 0.0 | 1.7 | 0.00 | 0.19 | 0.10 | 80 | 1017.3 |
| 20260506034006 | 57 | 30 | 0.0 | 1.7 | 0.00 | 0.19 | 0.10 | 80 | 1017.3 |
| 20260506033504 | 57 | 30 | 0.0 | 1.7 | 0.00 | 0.19 | 0.10 | 80 | 1017.2 |
| 20260506033012 | 57 | 46 | 0.0 | 1.7 | 0.00 | 0.19 | 0.10 | 79 | 1017.1 |
| 20260506032507 | 57 | 88 | 0.0 | 1.7 | 0.00 | 0.19 | 0.10 | 79 | 1017.1 |
| 20260506032008 | 57 | 352 | 0.0 | 1.7 | 0.00 | 0.19 | 0.10 | 79 | 1017.0 |
| 20260506031520 | 57 | 56 | 0.0 | 1.7 | 0.00 | 0.19 | 0.10 | 78 | 1016.8 |
| 20260506031009 | 57 | 238 | 0.0 | 1.7 | 0.00 | 0.19 | 0.10 | 78 | 1017.0 |
| 20260506030514 | 57 | 360 | 0.0 | 2.6 | 0.00 | 0.19 | 0.10 | 78 | 1016.8 |
| 20260506030020 | 58 | 51 | 0.9 | 2.6 | 0.00 | 0.19 | 0.10 | 77 | 1016.8 |
| 20260506025516 | 58 | 148 | 0.9 | 2.6 | 0.00 | 0.19 | 0.10 | 77 | 1016.7 |
| 20260506025010 | 58 | 67 | 0.0 | 1.7 | 0.00 | 0.19 | 0.10 | 77 | 1016.8 |
| 20260506024529 | 58 | 63 | 0.0 | 2.6 | 0.00 | 0.19 | 0.10 | 77 | 1016.8 |
| 20260506024014 | 58 | 24 | 0.9 | 2.6 | 0.00 | 0.19 | 0.10 | 76 | 1016.8 |
| 20260506023507 | 59 | 28 | 0.0 | 2.6 | 0.00 | 0.19 | 0.10 | 75 | 1016.8 |
| 20260506023012 | 59 | 101 | 0.0 | 2.6 | 0.00 | 0.19 | 0.10 | 75 | 1016.7 |
| 20260506022508 | 59 | 21 | 0.9 | 2.6 | 0.00 | 0.19 | 0.10 | 75 | 1016.7 |
| 20260506022004 | 59 | 100 | 0.9 | 2.6 | 0.00 | 0.19 | 0.10 | 75 | 1016.6 |
| 20260506021517 | 60 | 12 | 0.9 | 2.6 | 0.00 | 0.19 | 0.10 | 74 | 1016.6 |
| 20260506021010 | 60 | 139 | 0.9 | 2.6 | 0.00 | 0.19 | 0.10 | 74 | 1016.5 |
| 20260506020511 | 60 | 114 | 0.0 | 1.7 | 0.00 | 0.19 | 0.10 | 74 | 1016.5 |
| 20260506020021 | 60 | 121 | 0.0 | 2.6 | 0.00 | 0.19 | 0.10 | 73 | 1016.4 |
| 20260506015507 | 60 | 54 | 0.0 | 2.6 | 0.00 | 0.19 | 0.10 | 72 | 1016.4 |
| 20260506015009 | 60 | 32 | 0.0 | 2.6 | 0.00 | 0.19 | 0.10 | 72 | 1016.5 |
| 20260506014523 | 60 | 44 | 0.9 | 4.3 | 0.00 | 0.19 | 0.10 | 73 | 1016.4 |
| 20260506014010 | 60 | 98 | 0.9 | 4.3 | 0.00 | 0.19 | 0.10 | 71 | 1016.4 |
| 20260506013511 | 60 | 157 | 0.9 | 2.6 | 0.00 | 0.19 | 0.10 | 71 | 1016.3 |
| 20260506013038 | 60 | 63 | 0.9 | 4.3 | 0.00 | 0.19 | 0.10 | 71 | 1016.3 |
| 20260506012510 | 60 | 44 | 0.9 | 4.3 | 0.00 | 0.19 | 0.10 | 71 | 1016.4 |
| 20260506012010 | 60 | 332 | 0.9 | 5.2 | 0.00 | 0.19 | 0.10 | 70 | 1016.4 |
| 20260506011522 | 60 | 144 | 0.9 | 5.2 | 0.00 | 0.19 | 0.10 | 70 | 1016.5 |
| 20260506011008 | 60 | 150 | 0.9 | 2.6 | 0.00 | 0.19 | 0.10 | 69 | 1016.4 |
| 20260506010506 | 61 | 104 | 0.9 | 1.7 | 0.00 | 0.19 | 0.10 | 69 | 1016.4 |
| 20260506010022 | 61 | 352 | 0.0 | 4.3 | 0.00 | 0.19 | 0.10 | 70 | 1016.4 |
| 20260506005507 | 61 | 41 | 0.9 | 4.3 | 0.00 | 0.19 | 0.10 | 70 | 1016.3 |
| 20260506005010 | 61 | 19 | 0.9 | 2.6 | 0.00 | 0.19 | 0.10 | 69 | 1016.4 |
| 20260506004523 | 61 | 111 | 0.9 | 2.6 | 0.00 | 0.19 | 0.10 | 69 | 1016.3 |
| 20260506004012 | 62 | 335 | 0.9 | 2.6 | 0.00 | 0.19 | 0.10 | 69 | 1016.3 |
| 20260506003512 | 62 | 134 | 0.0 | 3.5 | 0.00 | 0.19 | 0.10 | 70 | 1016.2 |
| 20260506003027 | 61 | 35 | 0.9 | 2.6 | 0.00 | 0.19 | 0.10 | 70 | 1016.2 |
| 20260506002510 | 61 | 128 | 0.9 | 2.6 | 0.00 | 0.19 | 0.10 | 71 | 1016.2 |
| 20260506002013 | 61 | 157 | 0.9 | 2.6 | 0.00 | 0.19 | 0.10 | 72 | 1016.1 |
| 20260506001525 | 60 | 140 | 0.9 | 3.5 | 0.00 | 0.19 | 0.10 | 71 | 1016.1 |
| 20260506001007 | 60 | 46 | 0.9 | 3.5 | 0.00 | 0.19 | 0.10 | 73 | 1016.1 |
| 20260506000506 | 60 | 20 | 0.9 | 4.3 | 0.00 | 0.19 | 0.10 | 73 | 1016.1 |
| 20260506000017 | 60 | 9 | 1.7 | 4.3 | 0.00 | 0.19 | 0.10 | 73 | 1016.1 |
| 20260505235506 | 60 | 85 | 0.0 | 2.6 | 0.00 | 0.19 | 0.10 | 74 | 1016.1 |
| 20260505235012 | 60 | 13 | 0.9 | 2.6 | 0.00 | 0.19 | 0.10 | 74 | 1016.1 |
| 20260505234522 | 60 | 61 | 0.9 | 5.2 | 0.00 | 0.19 | 0.10 | 75 | 1016.1 |
| 20260505234008 | 60 | 32 | 0.9 | 5.2 | 0.00 | 0.19 | 0.10 | 75 | 1016.2 |
| 20260505233511 | 60 | 101 | 0.9 | 2.6 | 0.00 | 0.19 | 0.10 | 74 | 1016.2 |
| 20260505233027 | 60 | 9 | 0.9 | 2.6 | 0.00 | 0.19 | 0.10 | 74 | 1016.2 |